Skip Page Navigation
NASA JPL Caltech
NASA Logo - Jet Propulsion Laboratory + View the NASA Portal
+ Center for Near-Earth Object Studies
JPL Home Earth Solar System Stars & Galaxies Technology
JPL Solar System Dynamics
BODIES ORBITS EPHEMERIDES TOOLS PHYSICAL DATA DISCOVERY FAQ SITE MAP
JPL Small-Body Database Browser
Search: [ help ]  
295214 (2008 FY130)
Classification: Main-belt Asteroid          SPK-ID: 2295214
Ephemeris | Orbit Diagram | Orbital Elements | Mission Design | Physical Parameters | Discovery Circumstances | Close-Approach Data ]

[ show orbit diagram ]
Orbital Elements at Epoch 2459000.5 (2020-May-31.0) TDB
Reference: JPL 11 (heliocentric ecliptic J2000)
 Element Value Uncertainty (1-sigma)   Units 
e .05043616618747329 6.4364e-08  
a 2.995440455058227 5.3964e-08 au
q 2.844361922462229 2.0819e-07 au
i 9.198877819954273 1.4223e-05 deg
node 152.6731136309707 6.2835e-05 deg
peri 120.0425493276406 0.00018643 deg
M 58.97098893789941 0.00017939 deg
tp 2458690.311728059958
(2019-Jul-25.81172806)
0.00094071 TDB
period 1893.605311859516
5.18
5.1171e-05
1.401e-07
d
yr
n .190113535141323 5.1375e-09 deg/d
Q 3.146518987654224 5.6686e-08 au
  Orbit Determination Parameters
   # obs. used (total)      173  
   data-arc span      6357 days (17.40 yr)  
   first obs. used      2002-02-11  
   last obs. used      2019-07-09  
   planetary ephem.      DE431  
   SB-pert. ephem.      SB431-N16  
   condition code      0  
   norm. resid. RMS      .62306  
   source      ORB  
   producer      Otto Matic  
   solution date      2019-Sep-24 05:42:46  

Additional Information
 Earth MOID = 1.84175 au 
 Jupiter MOID = 1.95603 au 
 T_jup = 3.233 
[ show covariance matrix ]

Ephemeris | Orbit Diagram | Orbital Elements | Mission Design | Physical Parameters | Discovery Circumstances | Close-Approach Data ]

Physical Parameter Table
Parameter Symbol Value Units Sigma Reference Notes
absolute magnitude H 15.7   n/a MPO264740  

295214 (2008 FY130)          Discovered 2008-Mar-27 by Spacewatch at Kitt Peak
Reference: 20110912/Numbers.arcLast Updated: 2011-09-14

[ show close-approach data ]
Alternate Designations
 2008 FY130 = 2004 PC49 
Ephemeris | Orbit Diagram | Orbital Elements | Mission Design | Physical Parameters | Discovery Circumstances | Close-Approach Data ]
ABOUT SSD CREDITS/AWARDS PRIVACY/COPYRIGHT GLOSSARY LINKS
FirstGov 2020-Aug-14 18:46 UT
(server date/time)  
NASA Home Page
Site Manager:   Ryan S. Park
Webmaster  Alan B. Chamberlin